Year,Month,Day,Hour,Minute,Value (Times are PST for temperature in C)
2011,09,12,00,00,17.40
2011,09,12,00,01,17.40
2011,09,12,00,02,17.40
2011,09,12,00,03,17.40
2011,09,12,00,04,17.30
2011,09,12,00,05,17.30
2011,09,12,00,06,17.30
2011,09,12,00,07,17.30
2011,09,12,00,08,17.30
2011,09,12,00,09,17.30
2011,09,12,00,10,17.30
2011,09,12,00,11,17.30
2011,09,12,00,12,17.30
2011,09,12,00,13,17.30
2011,09,12,00,14,17.20
2011,09,12,00,15,17.20
2011,09,12,00,16,17.20
2011,09,12,00,17,17.20
2011,09,12,00,18,17.20
2011,09,12,00,19,17.20
2011,09,12,00,20,17.20
2011,09,12,00,21,17.20
2011,09,12,00,22,17.20
2011,09,12,00,23,17.20
2011,09,12,00,24,17.10
2011,09,12,00,25,17.10
2011,09,12,00,26,17.10
2011,09,12,00,27,17.10
2011,09,12,00,28,17.10
2011,09,12,00,29,17.10
2011,09,12,00,30,17.10
2011,09,12,00,31,17.10
2011,09,12,00,32,17.00
2011,09,12,00,33,17.00
2011,09,12,00,34,16.90
2011,09,12,00,35,16.90
2011,09,12,00,36,16.80
2011,09,12,00,37,16.80
2011,09,12,00,38,16.70
2011,09,12,00,39,16.70
2011,09,12,00,40,16.70
2011,09,12,00,41,16.70
2011,09,12,00,42,16.70
2011,09,12,00,43,16.70
2011,09,12,00,44,16.70
2011,09,12,00,45,16.60
2011,09,12,00,46,16.60
2011,09,12,00,47,16.60
2011,09,12,00,48,16.60
2011,09,12,00,49,16.60
2011,09,12,00,50,16.50
2011,09,12,00,51,16.40
2011,09,12,00,52,16.40
2011,09,12,00,53,16.40
2011,09,12,00,54,16.40
2011,09,12,00,55,16.40
2011,09,12,00,56,16.40
2011,09,12,00,57,16.30
2011,09,12,00,58,16.30
2011,09,12,00,59,16.30
2011,09,12,01,00,16.20
2011,09,12,01,01,16.20
2011,09,12,01,02,16.20
2011,09,12,01,03,16.10
2011,09,12,01,04,16.10
2011,09,12,01,05,16.10
2011,09,12,01,06,16.10
2011,09,12,01,07,16.10
2011,09,12,01,08,16.10
2011,09,12,01,09,16.10
2011,09,12,01,10,16.00
2011,09,12,01,11,15.90
2011,09,12,01,12,15.90
2011,09,12,01,13,15.90
2011,09,12,01,14,15.90
2011,09,12,01,15,15.80
2011,09,12,01,16,15.80
2011,09,12,01,17,15.80
2011,09,12,01,18,15.80
2011,09,12,01,19,15.70
2011,09,12,01,20,15.70
2011,09,12,01,21,15.70
2011,09,12,01,22,15.60
2011,09,12,01,23,15.60
2011,09,12,01,24,15.60
2011,09,12,01,25,15.60
2011,09,12,01,26,15.60
2011,09,12,01,27,15.50
2011,09,12,01,28,15.50
2011,09,12,01,29,15.50
2011,09,12,01,30,15.50
2011,09,12,01,31,15.50
2011,09,12,01,32,15.50
2011,09,12,01,33,15.50
2011,09,12,01,34,15.50
2011,09,12,01,35,15.50
2011,09,12,01,36,15.50
2011,09,12,01,37,15.50
2011,09,12,01,38,15.50
2011,09,12,01,39,15.50
2011,09,12,01,40,15.50
2011,09,12,01,41,15.50
2011,09,12,01,42,15.50
2011,09,12,01,43,15.50
2011,09,12,01,44,15.50
2011,09,12,01,45,15.50
2011,09,12,01,46,15.50
2011,09,12,01,47,15.50
2011,09,12,01,48,15.50
2011,09,12,01,49,15.50
2011,09,12,01,50,15.50
2011,09,12,01,51,15.50
2011,09,12,01,52,15.50
2011,09,12,01,53,15.50
2011,09,12,01,54,15.50
2011,09,12,01,55,15.50
2011,09,12,01,56,15.60
2011,09,12,01,57,15.60
2011,09,12,01,58,15.60
2011,09,12,01,59,15.60
2011,09,12,02,00,15.60
2011,09,12,02,01,15.60
2011,09,12,02,02,15.60
2011,09,12,02,03,15.70
2011,09,12,02,04,15.70
2011,09,12,02,05,15.70
2011,09,12,02,06,15.70
2011,09,12,02,07,15.70
2011,09,12,02,08,15.70
2011,09,12,02,09,15.80
2011,09,12,02,10,15.80
2011,09,12,02,11,15.80
2011,09,12,02,12,15.80
2011,09,12,02,13,15.80
2011,09,12,02,14,15.80
2011,09,12,02,15,15.80
2011,09,12,02,16,15.80
2011,09,12,02,17,15.80
2011,09,12,02,18,15.80
2011,09,12,02,19,15.80
2011,09,12,02,20,15.80
2011,09,12,02,21,15.80
2011,09,12,02,22,15.80
2011,09,12,02,23,15.80
2011,09,12,02,24,15.80
2011,09,12,02,25,15.80
2011,09,12,02,26,15.80
2011,09,12,02,27,15.80
2011,09,12,02,28,15.80
2011,09,12,02,29,15.80
2011,09,12,02,30,15.80
2011,09,12,02,31,15.80
2011,09,12,02,32,15.80
2011,09,12,02,33,15.80
2011,09,12,02,34,15.80
2011,09,12,02,35,15.80
2011,09,12,02,36,15.80
2011,09,12,02,37,15.70
2011,09,12,02,38,15.70
2011,09,12,02,39,15.70
2011,09,12,02,40,15.70
2011,09,12,02,41,15.60
2011,09,12,02,42,15.60
2011,09,12,02,43,15.60
2011,09,12,02,44,15.50
2011,09,12,02,45,15.50
2011,09,12,02,46,15.50
2011,09,12,02,47,15.40
2011,09,12,02,48,15.40
2011,09,12,02,49,15.30
2011,09,12,02,50,15.30
2011,09,12,02,51,15.30
2011,09,12,02,52,15.30
2011,09,12,02,53,15.30
2011,09,12,02,54,15.20
2011,09,12,02,55,15.20
2011,09,12,02,56,15.20
2011,09,12,02,57,15.10
2011,09,12,02,58,15.10
2011,09,12,02,59,15.10
2011,09,12,03,00,15.10
2011,09,12,03,01,15.00
2011,09,12,03,02,15.00
2011,09,12,03,03,15.00
2011,09,12,03,04,15.00
2011,09,12,03,05,14.90
2011,09,12,03,06,14.90
2011,09,12,03,07,14.90
2011,09,12,03,08,14.90
2011,09,12,03,09,14.90
2011,09,12,03,10,14.90
2011,09,12,03,11,14.90
2011,09,12,03,12,14.90
2011,09,12,03,13,14.80
2011,09,12,03,14,14.80
2011,09,12,03,15,14.80
2011,09,12,03,16,14.80
2011,09,12,03,17,14.80
2011,09,12,03,18,14.80
2011,09,12,03,19,14.70
2011,09,12,03,20,14.70
2011,09,12,03,21,14.70
2011,09,12,03,22,14.60
2011,09,12,03,23,14.60
2011,09,12,03,24,14.60
2011,09,12,03,25,14.50
2011,09,12,03,26,14.50
2011,09,12,03,27,14.50
2011,09,12,03,28,14.40
2011,09,12,03,29,14.40
2011,09,12,03,30,14.40
2011,09,12,03,31,14.40
2011,09,12,03,32,14.40
2011,09,12,03,33,14.40
2011,09,12,03,34,14.40
2011,09,12,03,35,14.40
2011,09,12,03,36,14.40
2011,09,12,03,37,14.40
2011,09,12,03,38,14.40
2011,09,12,03,39,14.40
2011,09,12,03,40,14.40
2011,09,12,03,41,14.40
2011,09,12,03,42,14.40
2011,09,12,03,43,14.40
2011,09,12,03,44,14.30
2011,09,12,03,45,14.30
2011,09,12,03,46,14.30
2011,09,12,03,47,14.30
2011,09,12,03,48,14.30
2011,09,12,03,49,14.30
2011,09,12,03,50,14.30
2011,09,12,03,51,14.20
2011,09,12,03,52,14.20
2011,09,12,03,53,14.30
2011,09,12,03,54,14.30
2011,09,12,03,55,14.30
2011,09,12,03,56,14.30
2011,09,12,03,57,14.30
2011,09,12,03,58,14.30
2011,09,12,03,59,14.40
2011,09,12,04,00,14.40
2011,09,12,04,01,14.40
2011,09,12,04,02,14.40
2011,09,12,04,03,14.40
2011,09,12,04,04,14.30
2011,09,12,04,05,14.30
2011,09,12,04,06,14.30
2011,09,12,04,07,14.20
2011,09,12,04,08,14.20
2011,09,12,04,09,14.20
2011,09,12,04,10,14.20
2011,09,12,04,11,14.20
2011,09,12,04,12,14.20
2011,09,12,04,13,14.20
2011,09,12,04,14,14.20
2011,09,12,04,15,14.20
2011,09,12,04,16,14.20
2011,09,12,04,17,14.20
2011,09,12,04,18,14.10
2011,09,12,04,19,14.10
2011,09,12,04,20,14.00
2011,09,12,04,21,14.00
2011,09,12,04,22,13.90
2011,09,12,04,23,13.90
2011,09,12,04,24,13.90
2011,09,12,04,25,13.80
2011,09,12,04,26,13.80
2011,09,12,04,27,13.80
2011,09,12,04,28,13.70
2011,09,12,04,29,13.70
2011,09,12,04,30,13.70
2011,09,12,04,31,13.60
2011,09,12,04,32,13.60
2011,09,12,04,33,13.50
2011,09,12,04,34,13.50
2011,09,12,04,35,13.50
2011,09,12,04,36,13.40
2011,09,12,04,37,13.40
2011,09,12,04,38,13.40
2011,09,12,04,39,13.30
2011,09,12,04,40,13.30
2011,09,12,04,41,13.30
2011,09,12,04,42,13.30
2011,09,12,04,43,13.30
2011,09,12,04,44,13.30
2011,09,12,04,45,13.30
2011,09,12,04,46,13.20
2011,09,12,04,47,13.20
2011,09,12,04,48,13.20
2011,09,12,04,49,13.20
2011,09,12,04,50,13.20
2011,09,12,04,51,13.20
2011,09,12,04,52,13.20
2011,09,12,04,53,13.20
2011,09,12,04,54,13.20
2011,09,12,04,55,13.20
2011,09,12,04,56,13.20
2011,09,12,04,57,13.20
2011,09,12,04,58,13.20
2011,09,12,04,59,13.20
2011,09,12,05,00,13.20
2011,09,12,05,01,13.20
2011,09,12,05,02,13.20
2011,09,12,05,03,13.20
2011,09,12,05,04,13.20
2011,09,12,05,05,13.20
2011,09,12,05,06,13.20
2011,09,12,05,07,13.20
2011,09,12,05,08,13.20
2011,09,12,05,09,13.20
2011,09,12,05,10,13.30
2011,09,12,05,11,13.30
2011,09,12,05,12,13.30
2011,09,12,05,13,13.30
2011,09,12,05,14,13.30
2011,09,12,05,15,13.30
2011,09,12,05,16,13.30
2011,09,12,05,17,13.30
2011,09,12,05,18,13.30
2011,09,12,05,19,13.30
2011,09,12,05,20,13.30
2011,09,12,05,21,13.30
2011,09,12,05,22,13.30
2011,09,12,05,23,13.20
2011,09,12,05,24,13.20
2011,09,12,05,25,13.10
2011,09,12,05,26,13.10
2011,09,12,05,27,13.00
2011,09,12,05,28,13.00
2011,09,12,05,29,13.00
2011,09,12,05,30,13.00
2011,09,12,05,31,13.00
2011,09,12,05,32,12.90
2011,09,12,05,33,12.90
2011,09,12,05,34,12.90
2011,09,12,05,35,12.80
2011,09,12,05,36,12.80
2011,09,12,05,37,12.80
2011,09,12,05,38,12.80
2011,09,12,05,39,12.80
2011,09,12,05,40,12.80
2011,09,12,05,41,12.80
2011,09,12,05,42,12.80
2011,09,12,05,43,12.80
2011,09,12,05,44,12.80
2011,09,12,05,45,12.80
2011,09,12,05,46,12.80
2011,09,12,05,47,12.80
2011,09,12,05,48,12.90
2011,09,12,05,49,12.90
2011,09,12,05,50,12.90
2011,09,12,05,51,12.90
2011,09,12,05,52,12.90
2011,09,12,05,53,12.90
2011,09,12,05,54,12.90
2011,09,12,05,55,12.90
2011,09,12,05,56,12.90
2011,09,12,05,57,12.90
2011,09,12,05,58,12.90
2011,09,12,05,59,12.90
2011,09,12,06,00,12.90
2011,09,12,06,01,13.00
2011,09,12,06,02,13.00
2011,09,12,06,03,13.00
2011,09,12,06,04,13.00
2011,09,12,06,05,12.90
2011,09,12,06,06,12.90
2011,09,12,06,07,12.90
2011,09,12,06,08,12.90
2011,09,12,06,09,12.80
2011,09,12,06,10,12.80
2011,09,12,06,11,12.80
2011,09,12,06,12,12.80
2011,09,12,06,13,12.80
2011,09,12,06,14,12.80
2011,09,12,06,15,12.70
2011,09,12,06,16,12.70
2011,09,12,06,17,12.60
2011,09,12,06,18,12.60
2011,09,12,06,19,12.60
2011,09,12,06,20,12.60
2011,09,12,06,21,12.50
2011,09,12,06,22,12.50
2011,09,12,06,23,12.50
2011,09,12,06,24,12.50
2011,09,12,06,25,12.50
2011,09,12,06,26,12.50
2011,09,12,06,27,12.40
2011,09,12,06,28,12.40
2011,09,12,06,29,12.40
2011,09,12,06,30,12.40
2011,09,12,06,31,12.40
2011,09,12,06,32,12.40
2011,09,12,06,33,12.30
2011,09,12,06,34,12.30
2011,09,12,06,35,12.30
2011,09,12,06,36,12.30
2011,09,12,06,37,12.30
2011,09,12,06,38,12.30
2011,09,12,06,39,12.30
2011,09,12,06,40,12.30
2011,09,12,06,41,12.30
2011,09,12,06,42,12.30
2011,09,12,06,43,12.30
2011,09,12,06,44,12.30
2011,09,12,06,45,12.30
2011,09,12,06,46,12.30
2011,09,12,06,47,12.30
2011,09,12,06,48,12.30
2011,09,12,06,49,12.40
2011,09,12,06,50,12.40
2011,09,12,06,51,12.40
2011,09,12,06,52,12.40
2011,09,12,06,53,12.40
2011,09,12,06,54,12.40
2011,09,12,06,55,12.40
2011,09,12,06,56,12.30
2011,09,12,06,57,12.30
2011,09,12,06,58,12.30
2011,09,12,06,59,12.30
2011,09,12,07,00,12.30
2011,09,12,07,01,12.30
2011,09,12,07,02,12.40
2011,09,12,07,03,12.40
2011,09,12,07,04,12.40
2011,09,12,07,05,12.50
2011,09,12,07,06,12.50
2011,09,12,07,07,12.50
2011,09,12,07,08,12.50
2011,09,12,07,09,12.60
2011,09,12,07,10,12.60
2011,09,12,07,11,12.60
2011,09,12,07,12,12.60
2011,09,12,07,13,12.70
2011,09,12,07,14,12.70
2011,09,12,07,15,12.70
2011,09,12,07,16,12.80
2011,09,12,07,17,12.80
2011,09,12,07,18,12.80
2011,09,12,07,19,12.80
2011,09,12,07,20,12.80
2011,09,12,07,21,12.90
2011,09,12,07,22,13.00
2011,09,12,07,23,13.00
2011,09,12,07,24,13.10
2011,09,12,07,25,13.20
2011,09,12,07,26,13.20
2011,09,12,07,27,13.30
2011,09,12,07,28,13.30
2011,09,12,07,29,13.30
2011,09,12,07,30,13.30
2011,09,12,07,31,13.40
2011,09,12,07,32,13.50
2011,09,12,07,33,13.50
2011,09,12,07,34,13.50
2011,09,12,07,35,13.50
2011,09,12,07,36,13.60
2011,09,12,07,37,13.50
2011,09,12,07,38,13.50
2011,09,12,07,39,13.50
2011,09,12,07,40,13.50
2011,09,12,07,41,13.40
2011,09,12,07,42,13.40
2011,09,12,07,43,13.40
2011,09,12,07,44,13.40
2011,09,12,07,45,13.50
2011,09,12,07,46,13.50
2011,09,12,07,47,13.50
2011,09,12,07,48,13.50
2011,09,12,07,49,13.60
2011,09,12,07,50,13.60
2011,09,12,07,51,13.60
2011,09,12,07,52,13.60
2011,09,12,07,53,13.60
2011,09,12,07,54,13.70
2011,09,12,07,55,13.70
2011,09,12,07,56,13.80
2011,09,12,07,57,13.90
2011,09,12,07,58,13.90
2011,09,12,07,59,13.90
2011,09,12,08,00,13.90
2011,09,12,08,01,13.90
2011,09,12,08,02,13.90
2011,09,12,08,03,13.90
2011,09,12,08,04,14.00
2011,09,12,08,05,14.00
2011,09,12,08,06,14.10
2011,09,12,08,07,14.10
2011,09,12,08,08,14.20
2011,09,12,08,09,14.20
2011,09,12,08,10,14.30
2011,09,12,08,11,14.30
2011,09,12,08,12,14.30
2011,09,12,08,13,14.30
2011,09,12,08,14,14.30
2011,09,12,08,15,14.30
2011,09,12,08,16,14.30
2011,09,12,08,17,14.30
2011,09,12,08,18,14.20
2011,09,12,08,19,14.20
2011,09,12,08,20,14.20
2011,09,12,08,21,14.20
2011,09,12,08,22,14.20
2011,09,12,08,23,14.20
2011,09,12,08,24,14.20
2011,09,12,08,25,14.20
2011,09,12,08,26,14.20
2011,09,12,08,27,14.30
2011,09,12,08,28,14.30
2011,09,12,08,29,14.30
2011,09,12,08,30,14.40
2011,09,12,08,31,14.40
2011,09,12,08,32,14.50
2011,09,12,08,33,14.50
2011,09,12,08,34,14.50
2011,09,12,08,35,14.60
2011,09,12,08,36,14.70
2011,09,12,08,37,14.70
2011,09,12,08,38,14.80
2011,09,12,08,39,14.80
2011,09,12,08,40,15.00
2011,09,12,08,41,15.00
2011,09,12,08,42,15.10
2011,09,12,08,43,15.30
2011,09,12,08,44,15.40
2011,09,12,08,45,15.50
2011,09,12,08,46,15.60
2011,09,12,08,47,15.70
2011,09,12,08,48,15.80
2011,09,12,08,49,15.90
2011,09,12,08,50,16.00
2011,09,12,08,51,16.20
2011,09,12,08,52,16.20
2011,09,12,08,53,16.30
2011,09,12,08,54,16.40
2011,09,12,08,55,16.40
2011,09,12,08,56,16.50
2011,09,12,08,57,16.60
2011,09,12,08,58,16.70
2011,09,12,08,59,16.70
2011,09,12,09,00,16.80
2011,09,12,09,01,16.80
2011,09,12,09,02,16.80
2011,09,12,09,03,16.70
2011,09,12,09,04,16.50
2011,09,12,09,05,16.30
2011,09,12,09,06,16.20
2011,09,12,09,07,16.10
2011,09,12,09,08,16.00
2011,09,12,09,09,15.90
2011,09,12,09,10,15.80
2011,09,12,09,11,15.80
2011,09,12,09,12,16.00
2011,09,12,09,13,16.10
2011,09,12,09,14,16.10
2011,09,12,09,15,16.20
2011,09,12,09,16,16.30
2011,09,12,09,17,16.30
2011,09,12,09,18,16.30
2011,09,12,09,19,16.30
2011,09,12,09,20,16.20
2011,09,12,09,21,16.20
2011,09,12,09,22,16.30
2011,09,12,09,23,16.40
2011,09,12,09,24,16.40
2011,09,12,09,25,16.50
2011,09,12,09,26,16.60
2011,09,12,09,27,16.70
2011,09,12,09,28,16.80
2011,09,12,09,29,16.80
2011,09,12,09,30,16.90
2011,09,12,09,31,16.90
2011,09,12,09,32,17.00
2011,09,12,09,33,17.10
2011,09,12,09,34,17.30
2011,09,12,09,35,17.30
2011,09,12,09,36,17.30
2011,09,12,09,37,17.30
2011,09,12,09,38,17.30
2011,09,12,09,39,17.30
2011,09,12,09,40,17.30
2011,09,12,09,41,17.10
2011,09,12,09,42,16.90
2011,09,12,09,43,16.70
2011,09,12,09,44,16.60
2011,09,12,09,45,16.40
2011,09,12,09,46,16.40
2011,09,12,09,47,16.40
2011,09,12,09,48,16.40
2011,09,12,09,49,16.40
2011,09,12,09,50,16.50
2011,09,12,09,51,16.60
2011,09,12,09,52,16.70
2011,09,12,09,53,16.80
2011,09,12,09,54,16.90
2011,09,12,09,55,17.00
2011,09,12,09,56,17.10
2011,09,12,09,57,17.30
2011,09,12,09,58,17.40
2011,09,12,09,59,17.50
2011,09,12,10,00,17.60
2011,09,12,10,01,17.70
2011,09,12,10,02,17.80
2011,09,12,10,03,17.80
2011,09,12,10,04,17.70
2011,09,12,10,05,17.50
2011,09,12,10,06,17.40
2011,09,12,10,07,17.10
2011,09,12,10,08,16.90
2011,09,12,10,09,16.80
2011,09,12,10,10,16.70
2011,09,12,10,11,16.70
2011,09,12,10,12,16.70
2011,09,12,10,13,16.70
2011,09,12,10,14,16.60
2011,09,12,10,15,16.60
2011,09,12,10,16,16.50
2011,09,12,10,17,16.40
2011,09,12,10,18,16.40
2011,09,12,10,19,16.60
2011,09,12,10,20,16.60
2011,09,12,10,21,16.40
2011,09,12,10,22,16.40
2011,09,12,10,23,16.40
2011,09,12,10,24,16.30
2011,09,12,10,25,16.30
2011,09,12,10,26,16.20
2011,09,12,10,27,16.20
2011,09,12,10,28,16.20
2011,09,12,10,29,16.20
2011,09,12,10,30,16.20
2011,09,12,10,31,16.20
2011,09,12,10,32,16.30
2011,09,12,10,33,16.20
2011,09,12,10,34,16.20
2011,09,12,10,35,16.20
2011,09,12,10,36,16.30
2011,09,12,10,37,16.40
2011,09,12,10,38,16.50
2011,09,12,10,39,16.70
2011,09,12,10,40,16.80
2011,09,12,10,41,16.90
2011,09,12,10,42,17.00
2011,09,12,10,43,17.00
2011,09,12,10,44,17.00
2011,09,12,10,45,17.00
2011,09,12,10,46,17.00
2011,09,12,10,47,16.90
2011,09,12,10,48,16.90
2011,09,12,10,49,17.00
2011,09,12,10,50,17.00
2011,09,12,10,51,17.00
2011,09,12,10,52,17.00
2011,09,12,10,53,17.10
2011,09,12,10,54,17.10
2011,09,12,10,55,17.00
2011,09,12,10,56,17.00
2011,09,12,10,57,16.90
2011,09,12,10,58,16.90
2011,09,12,10,59,17.00
2011,09,12,11,00,17.00
2011,09,12,11,01,17.10
2011,09,12,11,02,17.20
2011,09,12,11,03,17.20
2011,09,12,11,04,17.20
2011,09,12,11,05,17.30
2011,09,12,11,06,17.30
2011,09,12,11,07,17.30
2011,09,12,11,08,17.30
2011,09,12,11,09,17.30
2011,09,12,11,10,17.30
2011,09,12,11,11,17.30
2011,09,12,11,12,17.30
2011,09,12,11,13,17.30
2011,09,12,11,14,17.30
2011,09,12,11,15,17.30
2011,09,12,11,16,17.20
2011,09,12,11,17,17.10
2011,09,12,11,18,17.00
2011,09,12,11,19,17.00
2011,09,12,11,20,16.90
2011,09,12,11,21,16.90
2011,09,12,11,22,16.90
2011,09,12,11,23,16.90
2011,09,12,11,24,17.00
2011,09,12,11,25,17.10
2011,09,12,11,26,17.10
2011,09,12,11,27,17.20
2011,09,12,11,28,17.20
2011,09,12,11,29,17.30
2011,09,12,11,30,17.20
2011,09,12,11,31,17.10
2011,09,12,11,32,17.00
2011,09,12,11,33,16.90
2011,09,12,11,34,16.90
2011,09,12,11,35,17.00
2011,09,12,11,36,17.00
2011,09,12,11,37,17.00
2011,09,12,11,38,17.00
2011,09,12,11,39,17.00
2011,09,12,11,40,16.90
2011,09,12,11,41,16.80
2011,09,12,11,42,16.80
2011,09,12,11,43,16.80
2011,09,12,11,44,16.90
2011,09,12,11,45,16.80
2011,09,12,11,46,16.80
2011,09,12,11,47,16.70
2011,09,12,11,48,16.70
2011,09,12,11,49,16.70
2011,09,12,11,50,16.80
2011,09,12,11,51,16.80
2011,09,12,11,52,16.70
2011,09,12,11,53,16.60
2011,09,12,11,54,16.70
2011,09,12,11,55,16.70
2011,09,12,11,56,16.80
2011,09,12,11,57,16.90
2011,09,12,11,58,16.90
2011,09,12,11,59,17.00
2011,09,12,12,00,16.90
2011,09,12,12,01,16.90
2011,09,12,12,02,16.80
2011,09,12,12,03,16.80
2011,09,12,12,04,16.80
2011,09,12,12,05,16.80
2011,09,12,12,06,16.90
2011,09,12,12,07,16.90
2011,09,12,12,08,17.00
2011,09,12,12,09,17.00
2011,09,12,12,10,17.00
2011,09,12,12,11,17.10
2011,09,12,12,12,17.10
2011,09,12,12,13,17.10
2011,09,12,12,14,17.10
2011,09,12,12,15,17.10
2011,09,12,12,16,17.20
2011,09,12,12,17,17.30
2011,09,12,12,18,17.40
2011,09,12,12,19,17.40
2011,09,12,12,20,17.40
2011,09,12,12,21,17.30
2011,09,12,12,22,17.30
2011,09,12,12,23,17.30
2011,09,12,12,24,17.10
2011,09,12,12,25,17.00
2011,09,12,12,26,16.80
2011,09,12,12,27,16.70
2011,09,12,12,28,16.70
2011,09,12,12,29,16.70
2011,09,12,12,30,16.70
2011,09,12,12,31,16.70
2011,09,12,12,32,16.70
2011,09,12,12,33,16.70
2011,09,12,12,34,16.70
2011,09,12,12,35,16.80
2011,09,12,12,36,16.80
2011,09,12,12,37,16.80
2011,09,12,12,38,16.90
2011,09,12,12,39,16.90
2011,09,12,12,40,16.90
2011,09,12,12,41,17.00
2011,09,12,12,42,17.00
2011,09,12,12,43,17.00
2011,09,12,12,44,16.90
2011,09,12,12,45,16.90
2011,09,12,12,46,16.90
2011,09,12,12,47,17.00
2011,09,12,12,48,17.00
2011,09,12,12,49,17.00
2011,09,12,12,50,16.90
2011,09,12,12,51,16.90
2011,09,12,12,52,16.90
2011,09,12,12,53,16.70
2011,09,12,12,54,16.70
2011,09,12,12,55,16.90
2011,09,12,12,56,16.90
2011,09,12,12,57,17.10
2011,09,12,12,58,17.20
2011,09,12,12,59,17.30
2011,09,12,13,00,17.30
2011,09,12,13,01,17.40
2011,09,12,13,02,17.40
2011,09,12,13,03,17.30
2011,09,12,13,04,17.40
2011,09,12,13,05,17.30
2011,09,12,13,06,17.30
2011,09,12,13,07,17.30
2011,09,12,13,08,17.40
2011,09,12,13,09,17.40
2011,09,12,13,10,17.50
2011,09,12,13,11,17.60
2011,09,12,13,12,17.60
2011,09,12,13,13,17.60
2011,09,12,13,14,17.50
2011,09,12,13,15,17.30
2011,09,12,13,16,17.30
2011,09,12,13,17,17.20
2011,09,12,13,18,17.00
2011,09,12,13,19,16.90
2011,09,12,13,20,16.90
2011,09,12,13,21,16.80
2011,09,12,13,22,16.70
2011,09,12,13,23,16.80
2011,09,12,13,24,16.80
2011,09,12,13,25,16.80
2011,09,12,13,26,16.80
2011,09,12,13,27,16.90
2011,09,12,13,28,17.00
2011,09,12,13,29,17.10
2011,09,12,13,30,17.20
2011,09,12,13,31,17.20
2011,09,12,13,32,17.20
2011,09,12,13,33,17.30
2011,09,12,13,34,17.30
2011,09,12,13,35,17.40
2011,09,12,13,36,17.50
2011,09,12,13,37,17.50
2011,09,12,13,38,17.50
2011,09,12,13,39,17.60
2011,09,12,13,40,17.50
2011,09,12,13,41,17.40
2011,09,12,13,42,17.30
2011,09,12,13,43,17.30
2011,09,12,13,44,17.20
2011,09,12,13,45,17.10
2011,09,12,13,46,17.10
2011,09,12,13,47,17.20
2011,09,12,13,48,17.30
2011,09,12,13,49,17.30
2011,09,12,13,50,17.40
2011,09,12,13,51,17.50
2011,09,12,13,52,17.50
2011,09,12,13,53,17.50
2011,09,12,13,54,17.50
2011,09,12,13,55,17.60
2011,09,12,13,56,17.60
2011,09,12,13,57,17.70
2011,09,12,13,58,17.70
2011,09,12,13,59,17.60
2011,09,12,14,00,17.60
2011,09,12,14,01,17.50
2011,09,12,14,02,17.50
2011,09,12,14,03,17.40
2011,09,12,14,04,17.30
2011,09,12,14,05,17.30
2011,09,12,14,06,17.30
2011,09,12,14,07,17.20
2011,09,12,14,08,17.10
2011,09,12,14,09,17.10
2011,09,12,14,10,17.10
2011,09,12,14,11,17.20
2011,09,12,14,12,17.30
2011,09,12,14,13,17.30
2011,09,12,14,14,17.30
2011,09,12,14,15,17.30
2011,09,12,14,16,17.30
2011,09,12,14,17,17.20
2011,09,12,14,18,17.20
2011,09,12,14,19,17.30
2011,09,12,14,20,17.30
2011,09,12,14,21,17.30
2011,09,12,14,22,17.40
2011,09,12,14,23,17.50
2011,09,12,14,24,17.60
2011,09,12,14,25,17.60
2011,09,12,14,26,17.50
2011,09,12,14,27,17.50
2011,09,12,14,28,17.40
2011,09,12,14,29,17.30
2011,09,12,14,30,17.30
2011,09,12,14,31,17.20
2011,09,12,14,32,17.20
2011,09,12,14,33,17.10
2011,09,12,14,34,17.10
2011,09,12,14,35,17.20
2011,09,12,14,36,17.30
2011,09,12,14,37,17.30
2011,09,12,14,38,17.30
2011,09,12,14,39,17.30
2011,09,12,14,40,17.30
2011,09,12,14,41,17.30
2011,09,12,14,42,17.30
2011,09,12,14,43,17.30
2011,09,12,14,44,17.30
2011,09,12,14,45,17.20
2011,09,12,14,46,17.30
2011,09,12,14,47,17.30
2011,09,12,14,48,17.30
2011,09,12,14,49,17.40
2011,09,12,14,50,17.40
2011,09,12,14,51,17.40
2011,09,12,14,52,17.40
2011,09,12,14,53,17.50
2011,09,12,14,54,17.50
2011,09,12,14,55,17.50
2011,09,12,14,56,17.60
2011,09,12,14,57,17.60
2011,09,12,14,58,17.60
2011,09,12,14,59,17.60
2011,09,12,15,00,17.60
2011,09,12,15,01,17.70
2011,09,12,15,02,17.70
2011,09,12,15,03,17.80
2011,09,12,15,04,17.80
2011,09,12,15,05,17.80
2011,09,12,15,06,17.90
2011,09,12,15,07,17.90
2011,09,12,15,08,17.90
2011,09,12,15,09,17.90
2011,09,12,15,10,17.90
2011,09,12,15,11,17.80
2011,09,12,15,12,17.80
2011,09,12,15,13,17.90
2011,09,12,15,14,17.90
2011,09,12,15,15,18.00
2011,09,12,15,16,18.10
2011,09,12,15,17,18.10
2011,09,12,15,18,18.10
2011,09,12,15,19,18.20
2011,09,12,15,20,18.10
2011,09,12,15,21,18.10
2011,09,12,15,22,17.90
2011,09,12,15,23,17.90
2011,09,12,15,24,17.90
2011,09,12,15,25,17.90
2011,09,12,15,26,17.90
2011,09,12,15,27,17.90
2011,09,12,15,28,17.90
2011,09,12,15,29,17.90
2011,09,12,15,30,18.00
2011,09,12,15,31,18.10
2011,09,12,15,32,18.20
2011,09,12,15,33,18.20
2011,09,12,15,34,18.40
2011,09,12,15,35,18.50
2011,09,12,15,36,18.50
2011,09,12,15,37,18.50
2011,09,12,15,38,18.60
2011,09,12,15,39,18.60
2011,09,12,15,40,18.60
2011,09,12,15,41,18.70
2011,09,12,15,42,18.70
2011,09,12,15,43,18.70
2011,09,12,15,44,18.80
2011,09,12,15,45,18.90
2011,09,12,15,46,19.00
2011,09,12,15,47,19.10
2011,09,12,15,48,19.00
2011,09,12,15,49,18.90
2011,09,12,15,50,18.90
2011,09,12,15,51,18.90
2011,09,12,15,52,18.90
2011,09,12,15,53,18.90
2011,09,12,15,54,19.00
2011,09,12,15,55,18.90
2011,09,12,15,56,18.90
2011,09,12,15,57,18.90
2011,09,12,15,58,18.90
2011,09,12,15,59,18.90
2011,09,12,16,00,18.90
2011,09,12,16,01,19.00
2011,09,12,16,02,19.10
2011,09,12,16,03,19.20
2011,09,12,16,04,19.30
2011,09,12,16,05,19.40
2011,09,12,16,06,19.60
2011,09,12,16,07,19.60
2011,09,12,16,08,19.70
2011,09,12,16,09,19.80
2011,09,12,16,10,19.90
2011,09,12,16,11,19.90
2011,09,12,16,12,19.90
2011,09,12,16,13,19.90
2011,09,12,16,14,19.90
2011,09,12,16,15,19.90
2011,09,12,16,16,19.90
2011,09,12,16,17,19.80
2011,09,12,16,18,19.80
2011,09,12,16,19,19.80
2011,09,12,16,20,19.70
2011,09,12,16,21,19.70
2011,09,12,16,22,19.60
2011,09,12,16,23,19.60
2011,09,12,16,24,19.60
2011,09,12,16,25,19.70
2011,09,12,16,26,19.80
2011,09,12,16,27,19.90
2011,09,12,16,28,19.90
2011,09,12,16,29,19.90
2011,09,12,16,30,20.00
2011,09,12,16,31,20.10
2011,09,12,16,32,20.20
2011,09,12,16,33,20.20
2011,09,12,16,34,20.20
2011,09,12,16,35,20.30
2011,09,12,16,36,20.30
2011,09,12,16,37,20.40
2011,09,12,16,38,20.40
2011,09,12,16,39,20.50
2011,09,12,16,40,20.50
2011,09,12,16,41,20.50
2011,09,12,16,42,20.50
2011,09,12,16,43,20.40
2011,09,12,16,44,20.50
2011,09,12,16,45,20.50
2011,09,12,16,46,20.60
2011,09,12,16,47,20.60
2011,09,12,16,48,20.70
2011,09,12,16,49,20.60
2011,09,12,16,50,20.50
2011,09,12,16,51,20.50
2011,09,12,16,52,20.60
2011,09,12,16,53,20.60
2011,09,12,16,54,20.60
2011,09,12,16,55,20.50
2011,09,12,16,56,20.50
2011,09,12,16,57,20.50
2011,09,12,16,58,20.50
2011,09,12,16,59,20.40
2011,09,12,17,00,20.40
2011,09,12,17,01,20.40
2011,09,12,17,02,20.50
2011,09,12,17,03,20.50
2011,09,12,17,04,20.50
2011,09,12,17,05,20.50
2011,09,12,17,06,20.50
2011,09,12,17,07,20.50
2011,09,12,17,08,20.50
2011,09,12,17,09,20.50
2011,09,12,17,10,20.50
2011,09,12,17,11,20.50
2011,09,12,17,12,20.50
2011,09,12,17,13,20.40
2011,09,12,17,14,20.40
2011,09,12,17,15,20.40
2011,09,12,17,16,20.40
2011,09,12,17,17,20.40
2011,09,12,17,18,20.40
2011,09,12,17,19,20.40